Time,TemperatureF,DewpointF,PressureIn,WindDirection,WindDirectionDegrees,WindSpeedMPH,WindSpeedGustMPH,Humidity,HourlyPrecipIn,Conditions,Clouds,dailyrainin,SoftwareType,DateUTC
2013-07-20 00:12:00,74.5,72.0,29.94,SE,132,0.0,0.0,90,0.00,,,0.00,weatherlink.com 1.10,2013-07-20 05:12:00,
2013-07-20 00:27:00,74.1,71.0,29.95,SE,132,0.0,0.0,91,0.00,,,0.00,weatherlink.com 1.10,2013-07-20 05:27:00,
2013-07-20 00:42:00,74.0,71.0,29.95,SE,133,0.0,0.0,91,0.00,,,0.00,weatherlink.com 1.10,2013-07-20 05:42:00,
2013-07-20 00:57:00,73.7,71.0,29.95,SE,132,0.0,0.0,92,0.00,,,0.00,weatherlink.com 1.10,2013-07-20 05:57:00,
2013-07-20 01:12:00,73.6,71.0,29.95,SE,133,0.0,0.0,92,0.00,,,0.00,weatherlink.com 1.10,2013-07-20 06:12:00,
2013-07-20 01:27:00,73.3,71.0,29.95,SE,133,0.0,0.0,93,0.00,,,0.00,weatherlink.com 1.10,2013-07-20 06:27:00,
2013-07-20 01:42:00,73.1,71.0,29.95,SE,132,0.0,0.0,93,0.00,,,0.00,weatherlink.com 1.10,2013-07-20 06:42:00,
2013-07-20 01:57:00,72.8,71.0,29.95,SE,133,0.0,0.0,93,0.00,,,0.00,weatherlink.com 1.10,2013-07-20 06:57:00,
2013-07-20 02:12:00,72.7,71.0,29.95,SE,132,0.0,0.0,94,0.00,,,0.00,weatherlink.com 1.10,2013-07-20 07:12:00,
2013-07-20 02:27:00,72.5,71.0,29.95,SE,132,0.0,0.0,94,0.00,,,0.00,weatherlink.com 1.10,2013-07-20 07:27:00,
2013-07-20 02:42:00,72.4,71.0,29.95,SE,133,0.0,0.0,94,0.00,,,0.00,weatherlink.com 1.10,2013-07-20 07:42:00,
2013-07-20 02:57:00,72.3,71.0,29.95,SE,132,0.0,0.0,95,0.00,,,0.00,weatherlink.com 1.10,2013-07-20 07:57:00,
2013-07-20 03:12:00,72.2,71.0,29.94,SE,132,0.0,0.0,95,0.00,,,0.00,weatherlink.com 1.10,2013-07-20 08:12:00,
2013-07-20 03:27:00,72.1,71.0,29.94,SE,132,0.0,0.0,95,0.00,,,0.00,weatherlink.com 1.10,2013-07-20 08:27:00,
2013-07-20 03:42:00,72.0,71.0,29.94,SE,133,0.0,0.0,95,0.00,,,0.00,weatherlink.com 1.10,2013-07-20 08:42:00,
2013-07-20 03:57:00,71.9,71.0,29.94,SE,133,0.0,0.0,95,0.00,,,0.00,weatherlink.com 1.10,2013-07-20 08:57:00,
2013-07-20 04:12:00,71.8,70.0,29.95,SE,133,0.0,0.0,95,0.00,,,0.00,weatherlink.com 1.10,2013-07-20 09:12:00,
2013-07-20 04:27:00,71.7,70.0,29.95,SE,132,0.0,0.0,95,0.00,,,0.00,weatherlink.com 1.10,2013-07-20 09:27:00,
2013-07-20 04:42:00,71.7,71.0,29.95,SE,132,0.0,0.0,96,0.00,,,0.00,weatherlink.com 1.10,2013-07-20 09:42:00,
2013-07-20 04:57:00,71.6,70.0,29.95,SE,132,0.0,0.0,96,0.00,,,0.00,weatherlink.com 1.10,2013-07-20 09:57:00,
2013-07-20 05:12:00,71.4,70.0,29.95,SE,133,0.0,0.0,96,0.00,,,0.00,weatherlink.com 1.10,2013-07-20 10:12:00,
2013-07-20 05:27:00,71.5,70.0,29.95,SE,132,0.0,0.0,96,0.00,,,0.00,weatherlink.com 1.10,2013-07-20 10:27:00,
2013-07-20 05:42:00,71.6,70.0,29.95,SE,133,0.0,0.0,96,0.00,,,0.00,weatherlink.com 1.10,2013-07-20 10:42:00,
2013-07-20 05:57:00,71.6,70.0,29.95,SE,133,0.0,0.0,96,0.00,,,0.00,weatherlink.com 1.10,2013-07-20 10:57:00,
2013-07-20 06:12:00,71.8,71.0,29.96,SE,132,0.0,0.0,96,0.00,,,0.00,weatherlink.com 1.10,2013-07-20 11:12:00,
2013-07-20 06:27:00,72.1,71.0,29.96,SE,133,0.0,0.0,97,0.00,,,0.00,weatherlink.com 1.10,2013-07-20 11:27:00,
2013-07-20 06:42:00,72.4,72.0,29.96,SE,132,0.0,0.0,97,0.00,,,0.00,weatherlink.com 1.10,2013-07-20 11:42:00,
2013-07-20 06:58:00,72.7,72.0,29.96,SE,132,0.0,0.0,97,0.00,,,0.00,weatherlink.com 1.10,2013-07-20 11:58:00,
2013-07-20 07:13:00,73.3,72.0,29.96,SE,133,0.0,1.0,97,0.00,,,0.00,weatherlink.com 1.10,2013-07-20 12:13:00,
2013-07-20 07:28:00,74.0,73.0,29.96,SE,132,0.0,0.0,96,0.00,,,0.00,weatherlink.com 1.10,2013-07-20 12:28:00,
2013-07-20 07:43:00,74.9,74.0,29.96,SE,133,0.0,0.0,96,0.00,,,0.00,weatherlink.com 1.10,2013-07-20 12:43:00,
2013-07-20 07:58:00,78.7,75.0,29.96,SE,132,0.0,0.0,89,0.00,,,0.00,weatherlink.com 1.10,2013-07-20 12:58:00,
2013-07-20 08:13:00,81.6,76.0,29.96,SE,133,0.0,0.0,82,0.00,,,0.00,weatherlink.com 1.10,2013-07-20 13:13:00,
2013-07-20 08:28:00,83.8,76.0,29.96,SE,127,0.0,0.0,78,0.00,,,0.00,weatherlink.com 1.10,2013-07-20 13:28:00,
2013-07-20 08:43:00,85.7,76.0,29.95,SE,127,0.0,0.0,72,0.00,,,0.00,weatherlink.com 1.10,2013-07-20 13:43:00,
2013-07-20 08:58:00,87.7,76.0,29.96,SE,127,0.0,0.0,68,0.00,,,0.00,weatherlink.com 1.10,2013-07-20 13:58:00,
2013-07-20 09:13:00,87.3,75.0,29.96,WNW,283,0.0,3.0,67,0.00,,,0.00,weatherlink.com 1.10,2013-07-20 14:13:00,
2013-07-20 09:28:00,88.2,75.0,29.95,NW,314,0.0,1.0,66,0.00,,,0.00,weatherlink.com 1.10,2013-07-20 14:28:00,
2013-07-20 09:43:00,88.8,76.0,29.95,East,101,0.0,1.0,66,0.00,,,0.00,weatherlink.com 1.10,2013-07-20 14:43:00,
2013-07-20 09:58:00,88.8,75.0,29.95,West,273,0.0,3.0,64,0.00,,,0.00,weatherlink.com 1.10,2013-07-20 14:58:00,
2013-07-20 10:13:00,88.6,75.0,29.95,ENE,70,0.0,2.0,64,0.00,,,0.00,weatherlink.com 1.10,2013-07-20 15:13:00,
2013-07-20 10:28:00,89.8,75.0,29.95,East,84,0.0,2.0,62,0.00,,,0.00,weatherlink.com 1.10,2013-07-20 15:28:00,
2013-07-20 10:43:00,89.5,75.0,29.95,SE,124,0.0,6.0,63,0.00,,,0.00,weatherlink.com 1.10,2013-07-20 15:43:00,
2013-07-20 10:58:00,88.1,74.0,29.95,NW,324,0.0,4.0,64,0.00,,,0.00,weatherlink.com 1.10,2013-07-20 15:58:00,
2013-07-20 11:13:00,89.1,75.0,29.95,SSE,156,0.0,3.0,64,0.00,,,0.00,weatherlink.com 1.10,2013-07-20 16:13:00,
2013-07-20 11:29:00,88.9,75.0,29.95,NNE,32,0.0,1.0,64,0.00,,,0.00,weatherlink.com 1.10,2013-07-20 16:29:00,
2013-07-20 11:44:00,89.0,74.0,29.95,WNW,285,3.0,4.0,62,0.00,,,0.00,weatherlink.com 1.10,2013-07-20 16:44:00,
2013-07-20 11:59:00,90.0,74.0,29.94,North,354,0.0,5.0,60,0.00,,,0.00,weatherlink.com 1.10,2013-07-20 16:59:00,
2013-07-20 12:14:00,90.2,75.0,29.94,ENE,72,0.0,2.0,62,0.00,,,0.00,weatherlink.com 1.10,2013-07-20 17:14:00,
2013-07-20 12:29:00,92.2,75.0,29.93,WSW,257,0.0,5.0,58,0.00,,,0.00,weatherlink.com 1.10,2013-07-20 17:29:00,
2013-07-20 12:44:00,92.1,76.0,29.93,WNW,285,0.0,4.0,60,0.00,,,0.00,weatherlink.com 1.10,2013-07-20 17:44:00,
2013-07-20 12:59:00,94.2,76.0,29.93,ESE,120,0.0,1.0,56,0.00,,,0.00,weatherlink.com 1.10,2013-07-20 17:59:00,
2013-07-20 13:14:00,95.0,76.0,29.92,ESE,114,0.0,2.0,55,0.00,,,0.00,weatherlink.com 1.10,2013-07-20 18:14:00,
2013-07-20 13:44:00,94.2,75.0,29.91,SE,139,0.0,1.0,53,0.00,,,0.00,weatherlink.com 1.10,2013-07-20 18:44:00,
2013-07-20 14:14:00,92.6,74.0,29.90,WSW,249,1.0,4.0,55,0.00,,,0.00,weatherlink.com 1.10,2013-07-20 19:14:00,
2013-07-20 14:29:00,94.1,75.0,29.90,NE,35,0.0,2.0,54,0.00,,,0.00,weatherlink.com 1.10,2013-07-20 19:29:00,
2013-07-20 14:44:00,92.7,74.0,29.90,ESE,117,0.0,2.0,55,0.00,,,0.00,weatherlink.com 1.10,2013-07-20 19:44:00,
2013-07-20 14:59:00,91.6,76.0,29.89,ESE,116,0.0,1.0,60,0.00,,,0.00,weatherlink.com 1.10,2013-07-20 19:59:00,
2013-07-20 15:14:00,90.6,76.0,29.88,South,177,0.0,1.0,63,0.00,,,0.00,weatherlink.com 1.10,2013-07-20 20:14:00,
2013-07-20 15:29:00,92.1,76.0,29.87,East,79,0.0,6.0,59,0.00,,,0.00,weatherlink.com 1.10,2013-07-20 20:29:00,
2013-07-20 15:44:00,93.0,76.0,29.86,ENE,75,0.0,5.0,57,0.00,,,0.00,weatherlink.com 1.10,2013-07-20 20:44:00,
2013-07-20 15:59:00,93.3,76.0,29.86,WNW,300,0.0,1.0,58,0.00,,,0.00,weatherlink.com 1.10,2013-07-20 20:59:00,
2013-07-20 16:14:00,93.8,75.0,29.85,SSE,162,0.0,1.0,54,0.00,,,0.00,weatherlink.com 1.10,2013-07-20 21:14:00,
2013-07-20 16:29:00,95.0,76.0,29.84,SSE,155,0.0,1.0,55,0.00,,,0.00,weatherlink.com 1.10,2013-07-20 21:29:00,
2013-07-20 16:59:00,97.4,75.0,29.83,SE,146,0.0,1.0,49,0.00,,,0.00,weatherlink.com 1.10,2013-07-20 21:59:00,
2013-07-20 17:14:00,97.7,75.0,29.82,West,262,0.0,2.0,49,0.00,,,0.00,weatherlink.com 1.10,2013-07-20 22:14:00,
2013-07-20 17:29:00,97.5,75.0,29.82,SSE,155,0.0,1.0,49,0.00,,,0.00,weatherlink.com 1.10,2013-07-20 22:29:00,
2013-07-20 17:44:00,97.4,75.0,29.83,East,84,1.0,2.0,48,0.00,,,0.00,weatherlink.com 1.10,2013-07-20 22:44:00,
2013-07-20 17:59:00,97.3,74.0,29.84,West,264,0.0,3.0,48,0.00,,,0.00,weatherlink.com 1.10,2013-07-20 22:59:00,
2013-07-20 18:14:00,97.5,75.0,29.84,ESE,121,0.0,1.0,49,0.00,,,0.00,weatherlink.com 1.10,2013-07-20 23:14:00,
2013-07-20 18:29:00,95.7,74.0,29.85,East,100,0.0,1.0,50,0.00,,,0.00,weatherlink.com 1.10,2013-07-20 23:29:00,
2013-07-20 18:44:00,95.7,75.0,29.86,ESE,105,0.0,1.0,51,0.00,,,0.00,weatherlink.com 1.10,2013-07-20 23:44:00,
2013-07-20 18:59:00,96.4,75.0,29.86,ESE,104,0.0,1.0,51,0.00,,,0.00,weatherlink.com 1.10,2013-07-20 23:59:00,
2013-07-20 19:14:00,94.0,74.0,29.87,WNW,285,0.0,2.0,53,0.00,,,0.00,weatherlink.com 1.10,2013-07-21 00:14:00,
2013-07-20 19:29:00,91.1,74.0,29.87,WNW,291,0.0,1.0,58,0.00,,,0.00,weatherlink.com 1.10,2013-07-21 00:29:00,
2013-07-20 19:44:00,89.0,74.0,29.87,WNW,291,0.0,1.0,61,0.00,,,0.00,weatherlink.com 1.10,2013-07-21 00:44:00,
2013-07-20 19:59:00,86.7,74.0,29.87,WNW,291,0.0,1.0,66,0.00,,,0.00,weatherlink.com 1.10,2013-07-21 00:59:00,
2013-07-20 20:14:00,85.0,74.0,29.87,WNW,292,0.0,1.0,69,0.00,,,0.00,weatherlink.com 1.10,2013-07-21 01:14:00,
2013-07-20 20:44:00,82.7,74.0,29.89,WNW,291,0.0,0.0,74,0.00,,,0.00,weatherlink.com 1.10,2013-07-21 01:44:00,
2013-07-20 20:59:00,82.1,74.0,29.89,WNW,291,0.0,0.0,76,0.00,,,0.00,weatherlink.com 1.10,2013-07-21 01:59:00,
2013-07-20 21:14:00,81.6,74.0,29.89,WNW,291,0.0,0.0,77,0.00,,,0.00,weatherlink.com 1.10,2013-07-21 02:14:00,
2013-07-20 21:29:00,81.1,74.0,29.90,WNW,291,0.0,0.0,79,0.00,,,0.00,weatherlink.com 1.10,2013-07-21 02:29:00,
2013-07-20 21:44:00,80.7,74.0,29.90,WNW,292,0.0,0.0,80,0.00,,,0.00,weatherlink.com 1.10,2013-07-21 02:44:00,
2013-07-20 21:59:00,80.3,74.0,29.90,WNW,291,0.0,0.0,82,0.00,,,0.00,weatherlink.com 1.10,2013-07-21 02:59:00,
2013-07-20 22:45:00,79.3,75.0,29.91,WNW,291,0.0,0.0,85,0.00,,,0.00,weatherlink.com 1.10,2013-07-21 03:45:00,
2013-07-20 23:00:00,79.0,75.0,29.91,WNW,291,0.0,0.0,86,0.00,,,0.00,weatherlink.com 1.10,2013-07-21 04:00:00,
2013-07-20 23:15:00,78.8,74.0,29.91,WNW,291,0.0,0.0,86,0.00,,,0.00,weatherlink.com 1.10,2013-07-21 04:15:00,
2013-07-20 23:30:00,78.6,75.0,29.91,WNW,291,0.0,0.0,87,0.00,,,0.00,weatherlink.com 1.10,2013-07-21 04:30:00,
2013-07-20 23:45:00,78.3,74.0,29.92,WNW,291,0.0,0.0,87,0.00,,,0.00,weatherlink.com 1.10,2013-07-21 04:45:00,